SCP
0 0 0 0 0 0 0 0 0 0 0 0 0 0 0 0 0 0 0 0 0 0 0 0 0 0 0 0 0 0 0 0 0 0 0 0 0 0 0 0 0 0 0 0
0 0 0 0 0 0 0 0 0 0 0 0 0 0 0 0 0 0 0 0 0 0 0 0 0 0 0 0 0 0 0 0 0 0 0 0 0 0 0 0 0 0 0 0
0 0 0 0 0 0 0 0 0 0 0 0 0 0 0 0 0 0 0 0 0 0 0 0 0 0 0 0 0 0 0 0 0 0 0 0 0 0 0 0 0 0 0 0
0 0 0 0 0 0 0 0 0 0 0 0 0 0 0 0 0 0 0 0 0 0 0 0 0 0 0 0 0 0 0 0 0 0 0 0 0 0 0 0 0 0 0 0
0 0 0 0 0 0 0 0 0 0 0 0 0 0 0 0 0 0 0 0 0 0 0 0 0 0 0 0 0 0 0 0 0 0 0 0 0 0 0 0 0 0 0 0
0 0 0 0 0 0 0 0 0 0 0 0 0 0 0 0 0 0 0 0 0 0 0 0 0 0 0 0 0 0 0 0 0 0 0 0 0 0 0 0 0 0 0 0
0 0 0 0 0 0 0 0 -0 -0 -0 0 0 0 0 0 0 0 0 0 0 0 0 0 0 0 0 0 0 0 0 0 0 0 0 0 0 0 0 0 0 0 0 0
0 0 0 0 0 0 0 0 0 0 0 0 0 0 0 0 0 0 0 0 0 0 0 0 0 0 0 0 0 0 0 0 0 0 0 0 0 0 0 0 0 0 0 0
0 0 0 0 0 0 -0 0 0 0 0 0 0 0 0 0 0 0 0 0 0 0 0 0 0 0 0 0 0 0 0 0 0 0 0 0 0 0 0 0 0 0 0 0
0 0 0 0 0 0 0 0 0 0 0 0 0 0 0 0 0 0 0 0 0 0 0 0 0 0 0 0 0 0 0 0 0 0 0 0 0 0 0 0 0 0 0 0
0 0 0 0 0 0 0 0 0 0 0 0 0 0 0 0 0 0 0 0 0 0 0 0 0 0 0 0 0 0 0 0 0 0 0 0 0 0 0 0 0 0 0 0
0 0 0 0 0 0 0 0 0 0 0 0 0 0 0 0 0 0 0 0 0 0 0 0 0 0 0 0 0 0 0 0 0 0 0 0 0 0 0 0 0 0 0 0
0 0 0 0 0 0 0 0 0 0 0 0 0 0 0 0 0 0 0 0 0 0 0 0 0 0 0 0 0 0 0 0 0 0 0 0 0 0 0 0 0 0 0 0
0 0 0 0 0 0 0 0 0 0 0 0 0 0 0 0 0 0 0 0 0 0 0 0 0 0 0 0 0 0 0 0 0 0 0 0 0 0 0 0 0 0 0 0
0 0 0 0 0 0 0 0 0 0 0 0 0 0 0 0 0 0 0 0 0 0 0 0 0 0 0 0 0 0 0 0 0 0 0 0 0 0 0 0 0 0 0 0
0 0 0 0 0 0 0 0 0 0 0 0 0 0 0 0 0 0 0 0 0 0 0 0 0 0 0 0 0 0 0 0 0 0 0 0 0 0 0 0 0 0 0 0
0 0 0 0 0 0 0 0 0 0 0 0 0 0 0 0 0 0 0 0 0 0 0 0 0 0 0 0 0 0 0 0 0 0 0 0 0 0 0 0 0 0 0 0
0 0 0 0 0 0 0 0 0 0 0 0 0 0 0 0 0 0 0 0 0 0 0 0 0 0 0 0 0 0 0 0 0 0 0 0 0 0 0 0 0 0 0 0
0 0 0 0 0 0 0 0 0 0 0 0 0 0 0 0 0 0 0 0 0 0 0 0 0 0 0 0 0 0 0 0 0 0 0 0 0 0 0 0 0 0 0 0
0 0 0 0 0 0 0 0 0 0 0 0 0 0 0 0 0 0 0 0 0 0 0 0 0 0 0 0 0 0 0 0 0 0 0 0 0 0 0 0 0 0 0 0
0 0 0 0 0 0 0 0 0 0 0 0 0 0 0 0 0 0 0 0 0 0 0 0 0 0 0 0 0 0 0 0 0 0 0 0 0 0 0 0 0 0 0 0
0 0 0 0 0 0 0 0 0 0 0 0 0 0 0 0 0 0 0 0 0 0 0 0 0 0 0 0 0 0 0 0 0 0 0 0 0 0 0 0 0 0 0 0
0 0 0 0 0 0 0 0 0 0 0 0 0 0 0 0 0 0 0 0 0 0 0 0 0 0 0 0 0 0 0 0 0 0 0 0 0 0 0 0 0 0 0 0
0 0 0 0 0 0 0 0 0 0 0 0 0 0 0 0 0 0 0 0 0 0 0 0 0 0 0 0 0 0 0 0 0 0 0 0 0 0 0 0 0 0 0 0
0 0 0 0 0 0 0 0 0 0 0 0 0 0 0 0 0 0 0 0 0 0 0 0 0 0 0 0 0 0 0 0 0 0 0 0 0 0 0 0 0 0 0 0
0 0 0 0 0 0 0 0 0 0 0 0 0 0 0 0 0 0 0 0 0 0 0 0 0 0 0 0 0 0 0 0 0 0 0 0 0 0 0 0 0 0 0 0
Wind_Speed
5 5 4 7 7 8 7 5 3 4 6 7 9 9 8 9 7 7 6 6 7 7 6 6 6 6 5 4 4 3 3 2 2 2 2 2 3 3 3 3 4 4 4 4
4 3 6 9 9 9 6 3 2 2 5 7 7 8 7 10 11 9 9 8 8 7 6 5 5 5 5 5 4 3 3 2 1 0 0 1 1 2 2 2 4 4 4 4
6 4 8 9 7 6 3 5 5 5 2 2 2 4 2 4 5 5 6 7 9 11 10 8 6 5 5 5 4 4 3 2 1 1 1 2 2 3 3 3 3 4 4 4
2 2 6 6 5 6 4 6 6 5 3 3 2 2 5 4 5 6 6 7 8 9 9 8 7 7 6 5 5 4 4 3 1 1 1 1 1 1 2 2 3 4 5 4
3 4 4 4 5 7 7 5 3 2 3 2 1 3 6 2 5 7 7 7 8 9 10 9 8 8 7 6 5 4 4 3 2 1 1 1 0 1 2 2 4 4 4 4
2 2 4 5 2 5 4 4 6 6 5 2 5 5 5 6 8 7 7 7 8 8 8 8 7 6 5 5 4 4 4 3 2 1 1 1 1 1 1 2 3 4 3 3
2 2 1 3 3 1 5 6 5 4 4 6 3 4 8 6 6 8 9 8 8 8 8 8 7 7 6 6 5 5 4 4 3 2 1 2 2 2 1 1 2 2 2 3
3 2 3 3 5 5 4 8 7 4 4 5 2 3 5 2 3 5 7 8 8 8 8 8 9 8 7 7 6 5 5 4 4 3 2 2 2 1 1 2 2 2 2 3
5 3 2 1 2 6 5 3 6 6 2 2 4 2 4 1 2 4 5 7 8 9 9 8 8 7 7 7 7 7 6 5 4 4 3 2 2 2 2 2 2 2 3 3
6 3 1 1 4 3 5 7 5 4 2 2 3 3 5 7 7 6 7 8 8 8 8 8 7 7 7 7 6 6 6 6 5 4 3 2 3 3 2 1 2 3 3 3
4 5 0 1 3 4 2 2 5 4 5 5 2 7 7 10 9 9 9 9 9 9 9 8 7 7 6 5 5 5 5 5 4 4 3 2 2 2 1 1 2 2 2 2
4 6 2 5 5 5 5 5 7 4 3 4 3 9 5 8 8 8 8 8 8 8 8 8 7 6 5 6 5 5 5 5 5 5 4 3 2 1 1 2 2 2 2 2
5 7 4 5 6 1 3 5 6 6 4 4 3 8 3 3 5 6 7 7 7 7 7 6 6 6 6 6 5 5 6 6 5 5 4 3 2 2 2 2 2 1 2 2
6 5 7 8 7 5 5 5 6 7 4 4 6 7 3 5 6 6 6 7 7 7 7 7 7 7 6 6 6 5 6 6 6 5 4 4 4 4 3 3 2 2 2 2
6 4 5 6 6 6 7 8 8 8 9 8 7 6 7 9 10 8 7 6 6 6 7 8 8 7 6 6 6 5 6 5 5 5 5 5 5 4 3 3 3 2 3 3
4 4 1 3 4 5 6 9 10 9 8 8 6 7 7 5 5 5 6 7 7 7 8 8 8 8 7 7 7 6 6 6 5 6 6 5 5 4 4 4 3 3 3 3
4 5 2 4 5 2 6 10 12 9 8 10 11 11 4 5 7 9 8 8 8 8 7 8 8 8 8 8 8 8 7 6 6 6 6 6 5 5 5 4 3 4 4 4
8 6 4 2 1 5 11 7 9 11 10 10 8 8 10 10 9 7 7 8 8 7 6 6 6 7 7 6 6 6 6 6 6 6 6 6 6 6 5 4 5 5 4 4
7 8 4 3 3 8 10 7 8 9 9 9 10 9 9 6 4 1 4 7 8 7 6 6 6 5 5 6 6 6 5 5 5 5 6 6 6 6 5 5 6 5 4 5
4 5 6 4 3 6 10 8 4 6 5 6 11 11 9 9 5 5 5 6 6 5 5 5 4 4 4 4 5 6 4 4 5 6 6 6 6 6 6 7 6 5 4 5
3 2 4 5 4 9 10 5 5 6 10 5 9 10 11 10 9 7 6 6 6 5 5 5 6 4 3 4 6 5 3 3 4 4 3 3 4 5 6 6 5 5 5 5
9 6 6 6 5 11 8 4 7 9 4 3 7 9 9 7 6 7 8 7 7 6 5 6 6 4 2 4 6 5 2 3 2 1 1 2 3 3 3 4 5 4 4 5
8 10 9 11 11 10 6 9 8 5 5 5 7 7 10 10 8 8 7 7 6 6 5 5 6 5 3 3 4 4 1 1 0 1 1 2 3 3 3 3 4 4 3 3
5 2 3 4 8 7 6 5 5 6 6 6 7 9 11 10 9 9 8 7 6 5 5 5 7 6 4 4 4 3 2 2 2 2 2 2 3 3 3 3 3 3 3 3
5 1 2 5 7 5 5 6 6 5 5 6 7 8 12 12 10 9 8 8 7 6 5 6 7 7 5 5 5 4 4 4 4 3 3 3 3 3 4 3 3 3 3 3
6 6 5 7 8 6 9 9 7 7 8 10 9 8 8 11 12 10 9 8 8 7 7 7 8 8 6 5 5 5 4 4 4 4 3 3 3 3 3 3 4 5 4 6
Wind_Direction
157 121 169 184 171 164 173 177 202 226 198 187 226 239 210 203 196 194 196 184 179 173 170 160 153 141 126 113 110 110 93 79 65 37 13 356 341 332 340 339 348 350 350 349
85 172 183 151 152 155 167 164 210 250 209 193 229 245 221 196 198 192 185 177 171 154 155 157 150 144 138 130 122 118 116 115 97 100 257 265 288 298 306 326 340 341 343 340
149 189 156 150 161 149 156 175 190 204 200 230 234 315 248 208 196 195 184 173 163 162 166 166 157 155 145 142 147 140 142 135 126 86 37 7 5 352 350 341 336 325 330 335
148 183 153 156 178 154 188 210 188 175 128 262 177 258 276 208 189 196 187 171 165 163 164 165 161 162 162 166 161 153 155 159 166 113 81 61 14 322 295 298 312 321 331 336
182 171 151 161 194 165 191 201 172 146 133 328 283 166 281 174 197 212 201 184 171 166 167 169 170 171 172 172 168 168 165 182 202 168 141 136 244 271 298 319 336 337 334 337
183 194 166 175 182 170 155 63 42 49 66 313 237 164 249 215 205 200 199 188 174 169 169 169 170 165 170 176 175 173 173 202 221 208 142 158 199 265 336 332 335 333 329 328
35 7 174 137 109 61 86 82 37 6 9 261 242 168 238 232 202 182 182 185 180 172 167 168 170 175 179 184 190 185 183 205 218 211 198 186 194 192 223 275 305 319 320 314
122 254 225 180 163 168 157 131 150 187 222 279 316 216 256 272 176 158 164 172 175 179 179 180 183 184 188 194 194 189 192 205 211 212 219 206 197 192 227 250 261 279 277 282
154 241 281 179 143 139 133 150 168 142 203 265 298 332 334 1 151 159 169 174 186 190 190 189 188 188 190 195 199 195 194 201 207 212 210 203 221 218 237 261 271 280 289 297
141 156 264 15 60 58 144 146 98 116 154 285 303 241 228 218 218 211 202 200 205 200 193 189 188 192 194 198 201 194 191 195 201 204 208 201 221 232 239 250 281 290 305 317
126 136 289 28 202 203 163 144 113 123 155 160 244 261 226 199 203 206 214 211 205 198 193 191 193 195 192 192 192 192 196 191 195 200 205 203 226 231 230 242 268 277 300 318
131 118 182 253 272 197 176 180 145 150 217 171 185 265 268 191 195 194 207 209 204 197 192 190 189 189 190 193 195 195 195 192 198 200 201 207 213 205 218 247 267 279 301 314
124 108 79 352 336 329 204 184 156 138 130 160 179 264 297 205 200 200 197 198 194 189 185 183 185 190 196 200 201 198 194 197 201 197 198 206 213 209 221 240 260 281 296 312
111 120 158 186 212 210 221 218 175 138 163 210 220 243 253 215 215 219 211 200 191 187 182 182 191 201 205 204 201 198 200 200 197 192 193 203 216 213 216 224 239 256 272 289
113 160 205 223 230 203 213 219 199 184 185 188 224 220 227 214 209 209 203 194 185 189 192 192 196 203 206 205 205 202 203 201 192 186 197 212 216 212 211 223 238 255 271 276
116 160 212 278 257 226 233 228 212 209 198 205 218 242 240 215 182 188 192 186 189 196 199 198 197 197 201 202 201 200 204 203 188 189 205 211 209 211 217 228 237 253 267 278
152 149 147 266 290 338 260 224 206 209 206 190 211 226 195 173 189 194 194 190 193 198 197 195 196 198 199 200 195 197 202 194 189 199 210 211 210 216 226 230 233 246 253 260
150 140 146 225 12 235 244 233 200 205 218 199 198 196 182 191 199 196 184 180 190 190 187 188 192 196 202 199 194 195 187 184 193 204 214 216 213 222 229 229 239 245 245 251
151 142 141 151 228 275 286 265 191 187 236 209 191 190 187 160 109 259 203 176 179 182 180 184 185 184 186 189 186 173 179 187 198 214 221 222 216 221 227 233 242 242 241 251
98 112 127 141 191 248 255 266 193 127 255 229 183 177 164 135 147 233 210 165 159 157 160 161 155 143 154 178 161 156 175 186 216 228 230 228 217 217 226 233 239 238 234 247
148 123 151 171 214 262 257 266 110 144 236 228 179 171 163 174 189 190 162 154 150 146 145 136 127 127 151 150 134 136 147 207 237 237 235 236 230 229 233 240 243 243 246 255
181 177 189 161 195 253 250 166 182 212 227 184 173 169 165 170 152 146 150 151 149 141 136 130 120 116 114 127 127 127 162 249 243 215 230 256 260 258 254 249 259 257 252 260
198 193 186 185 210 230 217 205 216 184 179 178 165 165 149 146 154 157 157 155 153 149 143 131 125 113 87 89 112 116 294 308 71 61 321 303 306 298 291 274 276 280 266 256
266 186 164 253 266 260 243 225 202 188 185 176 163 156 153 156 160 159 157 158 154 150 144 133 122 113 96 74 74 76 26 44 74 52 4 348 341 326 320 306 288 283 279 272
241 204 214 261 279 308 289 241 211 190 166 155 157 163 163 156 159 161 159 158 152 142 136 130 126 119 108 86 68 47 37 57 66 50 23 3 352 338 328 321 299 287 269 255
214 191 194 236 242 221 246 245 219 189 186 175 165 164 168 163 161 158 157 155 147 140 130 122 118 117 111 92 69 42 35 57 70 52 22 3 351 342 337 331 330 324 320 332